Home > Weather > Garland > Past weeks

Flag for USA Weather for the Past 2 Weeks in Garland, Texas, USA

Now
68 °F

Clear.


Feels Like: 68 °F
Forecast: 66 / 78 °F
Wind: 6 mph from Northwest

Location: Mesquite Metro Airport

Current Time: Apr 30, 2016 at 2:26:29 AM

Latest Report: Apr 30, 2016 at 1:55 AM


Visibility: 7 mi

Pressure: 29.64 "Hg

Humidity: 96%

Dew Point: 67 °F

Location of GarlandLocation

Historic Weather in Garland — Graph

°F

Garland Temperature Yesterday

Maximum temperature yesterday: 81 °F (at 11:50 AM)
Minimum temperature yesterday: 68 °F (at 1:55 AM)
Average temperature yesterday: 71 °F

High & Low Weather Summary for the Past Weeks

 TemperatureHumidityPressure
High84 °F (Apr 27, 3:50 PM)100% (Apr 15, 6:50 AM)30.18 "Hg (Apr 15, 6:50 AM)
Low51 °F (Apr 15, 5:55 AM)26% (Apr 27, 2:50 PM)29.56 "Hg (Apr 29, 5:50 PM)
Average68 °F80%29.90 "Hg
* Reported Apr 15 12:15 AM — Apr 30 12:55 AM, Garland, Weather by CustomWeather, © 2016

Note: Actual official high and low records may vary slightly from our data, if they occured in-between our weather recording intervals... More about our weather records

Advertising

Garland Weather History for the Previous 24 Hours

Scroll right to see more
 ConditionsComfort  
Time TempWeatherWind HumidityBarometerVisibility
12:55 AM
Sat, Apr 30
67 °FClear.3 mph97%29.61 "Hg7 mi
12:35 AM68 °FClear.8 mph98%29.58 "Hg10 mi
12:15 AM68 °FPassing clouds.5 mph97%29.58 "Hg10 mi
11:55 PM
Fri, Apr 29
68 °FPassing clouds.No wind96%29.60 "Hg10 mi
11:35 PM68 °FPartly cloudy.3 mph96%29.62 "Hg10 mi
10:55 PM68 °FPassing clouds.6 mph96%29.63 "Hg10 mi
10:15 PM69 °FPassing clouds.3 mph94%29.57 "Hg10 mi
9:35 PM69 °FOvercast.13 mph95%29.59 "Hg7 mi
9:15 PM70 °FOvercast.3 mph90%29.56 "Hg7 mi
8:55 PM69 °FCloudy.13 mph96%29.59 "Hg10 mi
8:35 PM72 °FCloudy.10 mph97%29.58 "Hg3 mi
7:50 PM72 °FBroken clouds.3 mph94%29.58 "Hg7 mi
6:50 PM72 °FCloudy.9 mph94%29.56 "Hg10 mi
5:50 PM68 °FOvercast.9 mph94%29.56 "Hg10 mi
4:50 PM70 °FThundershowers. Cloudy.21 mph94%29.58 "Hg8 mi
3:50 PM75 °FFog.14 mph89%29.60 "Hg5 mi
2:50 PM77 °FFog.17 mph89%29.62 "Hg6 mi
1:50 PM79 °FFog.18 mph84%29.64 "Hg5 mi
12:50 PM81 °FFog.12 mph84%29.68 "Hg4 mi
11:50 AM81 °FFog.14 mph84%29.70 "Hg4 mi
9:50 AM75 °FFog.5 mph94%29.73 "Hg4 mi
8:50 AM73 °FFog.7 mph100%29.71 "Hg4 mi
7:50 AM73 °FFog.6 mph94%29.71 "Hg4 mi
6:50 AM72 °FFog.8 mph100%29.71 "Hg4 mi
6:15 AM72 °FPassing clouds.6 mph96%29.70 "Hg4 mi
5:55 AM72 °FMostly cloudy.8 mph96%29.69 "Hg5 mi
5:35 AM71 °FMostly cloudy.9 mph97%29.69 "Hg5 mi
5:15 AM70 °FMostly cloudy.5 mph98%29.70 "Hg7 mi
4:55 AM69 °FOvercast.No wind97%29.71 "Hg7 mi
4:35 AM70 °FOvercast.No wind95%29.72 "Hg5 mi
4:15 AM69 °FMostly cloudy.No wind94%29.72 "Hg10 mi
3:55 AM69 °FOvercast.3 mph93%29.73 "Hg10 mi
3:15 AM69 °FOvercast.No wind91%29.74 "Hg10 mi
2:55 AM69 °FOvercast.3 mph89%29.75 "Hg10 mi
2:35 AM69 °FMostly cloudy.No wind87%29.76 "Hg10 mi
2:15 AM68 °FOvercast.3 mph88%29.75 "Hg10 mi
Weather by CustomWeather, © 2016

See weather overviewHow to use our weather pages